International Virtual Aviation Organisation

Russian Federation and Kazakhstan MCD

 

Карточка аэропорта UHPP

Внимание!
Информация на этой странице в стадии наполнения.
Если вы не увидели какой-то информации, или заметили неточность - пожалуйста сообщите нам!
Спасибо!
Команда RU-STAFF
Название аэропортаЕлизово
Название аэропорта (англ.)Yelizovo
Превышение131 ft. (39.9 m.)
Координаты53°10.002', 158°27.24'
Высота перехода2400m
Эшелон переходаQFE>756:FL90;756>QFE>729:FL100;729>QFE:FL110
Коды ответчика6630-6657
Зона ОрВДПетропавловск-Камчатский РПИ (UHPP)
Данные METARUHPP 302200Z 36003MPS 9999 SCT040CB 03/02 Q1022 R34L/290155 NOSIG RMK MT OBSC QFE763/1017
Проноз погоды (TAF)UHPP 301941Z 3021/0103 10003G12MPS 9999 BKN020CB BKN040 TEMPO 3021/3023 1000 -SHRASN BR VV003 BECMG 3023/3024 5000 -SHRA BKN012 OVC020CB TEMPO 3100/3118 04010G18MPS FM311800 34003G12MPS 9999 SCT030CB BKN040
NOTAMshow/hide NOTAM
AWOS   TABLE

Информация о ВПП

ВПП Длина ВПП (м.) Покрытие Курс ВПП Частота ILS
34R3400Бетон344110.3
16L3400Бетон164 
34L2500Бетон344 
16R2500Бетон164 

Диспетчерские позиции

Позывной Наименование органа УВД Частота
UHPP_TWRПетропавловск - Старт118.100
UHPP_R_APPПетропавловск - Круг119.400



Спутниковое изображение